Flag for U.S.A. Weather past 2 weeks in Pomona, California, U.S.A.

Now
100 °F

Passing clouds.


Feels Like: 98 °F
Forecast: 66 / 99 °F
Wind: 16 mph from West

Location: Chino Airport

Current Time: Jul 24, 2014 at 4:17:39 PM

Latest Report: Jul 24, 2014 at 3:53 PM


Visibility: 10 mi

Pressure: 29.74 "Hg

Humidity: 22%

Dew point: 55 °F

Location of PomonaLocation

Historic Weather in Pomona — Graph

°F

Pomona temperature yesterday

Maximum temperature yesterday: 96 °F (at 1:53 PM)
Minimum temperature yesterday: 57 °F (at 4:53 AM)
Average temperature yesterday: 77 °F

Past Weeks' High & Low Weather Summary

 TemperatureHumidityPressure
High102 °F (Jul 24, 1:53 PM)97% (Jul 11, 6:53 AM)30.06 "Hg (Jul 11, 6:53 AM)
Low57 °F (Jul 23, 4:53 AM)17% (Jul 24, 1:53 PM)29.76 "Hg (Jul 24, 2:53 PM)
Average73 °F66%29.96 "Hg
* Reported Jul 9 2:53 PM — Jul 24 2:53 PM, Pomona, Weather by CustomWeather, © 2014

Note: Actual official high and low records may vary slightly from our data, if they occured in-between our weather recording intervals... More about our weather records

Advertising

Pomona weather history for previous 24 hours

 ConditionsComfort  
Time TempWeatherWind HumidityBarometerVisibility
2:53 PM
Jul 24
102 °FPassing clouds.12 mph20%29.76 "Hg10 mi
1:53 PM102 °FPassing clouds.8 mph17%29.78 "Hg10 mi
12:53 PM101 °FPassing clouds.6 mph22%29.79 "Hg10 mi
11:53 AM96 °FPassing clouds.6 mph22%29.81 "Hg10 mi
10:53 AM90 °FPassing clouds.3 mph26%29.83 "Hg10 mi
9:53 AM83 °FPassing clouds.3 mph40%29.86 "Hg10 mi
8:53 AM77 °FSunny.No wind50%29.87 "Hg10 mi
7:53 AM72 °FPassing clouds.No wind61%29.88 "Hg10 mi
6:53 AM65 °FPassing clouds.No wind81%29.87 "Hg10 mi
5:53 AM59 °FFog.3 mph90%29.86 "Hg6 mi
4:53 AM62 °FClear.No wind83%29.85 "Hg7 mi
3:53 AM63 °FClear.No wind84%29.86 "Hg6 mi
2:53 AM64 °FClear.No wind81%29.87 "Hg6 mi
1:53 AM65 °FClear.3 mph76%29.88 "Hg7 mi
12:53 AM67 °FClear.No wind71%29.90 "Hg5 mi
11:53 PM
Jul 23
69 °FClear.No wind66%29.90 "Hg7 mi
10:53 PM71 °FClear.3 mph57%29.90 "Hg10 mi
9:53 PM74 °FClear.5 mph52%29.90 "Hg9 mi
8:53 PM76 °FSunny.7 mph48%29.89 "Hg9 mi
7:53 PM80 °FPassing clouds.8 mph38%29.88 "Hg10 mi
6:53 PM87 °FPassing clouds.9 mph25%29.88 "Hg10 mi
5:53 PM90 °FPassing clouds.14 mph23%29.88 "Hg10 mi
4:53 PM93 °FPassing clouds.15 mph23%29.88 "Hg10 mi
Weather by CustomWeather, © 2014

See weather overviewHow to use our weather pages